Location: Lafig�re
(44.4503°N, 4.0357°E)
Time: 10:31:32
(UTC+00:00)

Cosmos 2150 Rocket - Pass Details

Date: 25 January 2021
Orbit: 748 x 808 km, 74.0° (Epoch: 07 March)

Event Time Altitude Azimuth Distance (km) Brightness Sun altitude
Exits shadow 03:58:52 11° 10° (N) 2,314 6.6 -33.9°
Maximum altitude 04:02:23 18° 53° (NE) 1,845 6.5 -33.3°
Drops below altitude 10° 04:06:03 10° 96° (E) 2,366 7.3 -32.6°
Sets 04:09:13 0° 115° (ESE) 3,301 8.1 -32.1°
